[Iaude] MPEC D42: 2024 CV8 [a=1.72,e=0.59,i=7.7,H=26.0]

mpec at cfa.harvard.edu mpec at cfa.harvard.edu
Sat Feb 17 12:31:09 EST 2024


M.P.E.C. 2024-D42                             Issued 2024 February 17, 17:29 UT

     The Minor Planet Electronic Circulars contain information on unusual
         minor planets, routine data on comets and natural satellites,
         and occasional editorial announcements.  They are published
    on behalf of Division F of the International Astronomical Union by the
          Minor Planet Center, Smithsonian Astrophysical Observatory,
                          Cambridge, MA 02138, U.S.A.
			  
             Prepared using the Tamkin Foundation Computer Network

                              MPC at CFA.HARVARD.EDU
            URL https://www.minorplanetcenter.net/    ISSN 1523-6714

                                    2024 CV8                                    


Observations:
     K24C08V* C2024 02 13.45626209 31 11.020+02 03 03.85         20.59wXED042F52
     K24C08V  C2024 02 13.46869109 31 10.353+02 03 22.32         20.61wXED042F52
     K24C08V  C2024 02 13.48107909 31 09.712+02 03 40.86         20.67wXED042F52
     K24C08V  C2024 02 13.49340609 31 09.096+02 03 59.31         20.69wXED042F52
     K24C08V  C2024 02 16.96119809 31 39.365+05 27 28.44         18.65oVED042M22
     K24C08V  C2024 02 16.96666309 31 38.870+05 28 10.02         19.30oVED042M22
     K24C08V  C2024 02 16.97074209 31 38.546+05 28 41.66         18.38oVED042M22
     K24C08V  C2024 02 17.00090009 31 35.959+05 32 38.65         18.81oVED042M22
     K24C08V  C2024 02 17.08022909 31 30.634+05 43 22.91         19.06oVED042M22
     K24C08V  C2024 02 17.08122609 31 30.562+05 43 30.58         18.61oVED042M22
     K24C08V  C2024 02 17.08167609 31 30.518+05 43 34.43         18.14oVED042M22
     K24C08V  C2024 02 17.08212809 31 30.530+05 43 37.92         18.45oVED042M22
     K24C08V  C2024 02 17.08214509 31 56.942+05 43 35.18         18.44oVED042W68
     K24C08V  C2024 02 17.08257909 31 30.475+05 43 41.99         18.70oVED042M22
     K24C08V  C2024 02 17.08259509 31 56.926+05 43 39.00         17.94oVED042W68
     K24C08V  C2024 02 17.08304509 31 56.837+05 43 43.21         18.55oVED042W68
     K24C08V  C2024 02 17.08394509 31 56.827+05 43 50.48         18.46oVED042W68
     K24C08V KC2024 02 17.13829509 32 02.785+05 45 49.82         18.69GVED042I52
     K24C08V KC2024 02 17.13956909 32 02.742+05 46 00.98         19.05GVED042I52
     K24C08V KC2024 02 17.14084509 32 02.713+05 46 12.43         18.83GVED042I52
     K24C08V KC2024 02 17.14212709 32 02.663+05 46 23.70         18.65GVED042I52
     K24C08V KC2024 02 17.18312909 31 59.24 +05 52 20.0          18.8 GXED042858
     K24C08V KC2024 02 17.18765709 31 58.98 +05 53 01.3          18.7 GXED042858
     K24C08V KC2024 02 17.19224909 31 58.68 +05 53 43.1          18.8 GXED042858
     K24C08V KC2024 02 17.25082209 31 48.26 +06 02 27.1          18.9 GVED042H21
     K24C08V KC2024 02 17.25361909 31 48.02 +06 02 53.4          18.2 GVED042H21
     K24C08V KC2024 02 17.25641409 31 47.79 +06 03 20.0          18.7 GVED042H21
     K24C08V KC2024 02 17.25921109 31 47.53 +06 03 46.4          18.8 GVED042H21
     K24C08V  C2024 02 17.28160 09 31 51.45 +06 07 41.5          19.5 VtED042V27
     K24C08V  C2024 02 17.28265 09 31 51.33 +06 07 51.5          19.1 VtED042V27
     K24C08V 1C2024 02 17.28454909 31 52.720+06 08 28.39         18.72GVED042703
     K24C08V 1C2024 02 17.28681609 31 52.547+06 08 50.10         18.35GVED042703
     K24C08V 1C2024 02 17.28908209 31 52.302+06 09 11.92         18.64GVED042703
     K24C08V 1C2024 02 17.29134809 31 52.093+06 09 34.24         19.21GVED042703
     K24C08V  C2024 02 17.29895 09 31 49.89 +06 10 30.0          18.0 VtED042V27
     K24C08V KB2024 02 17.37030 09 31 41.34 +06 22 08.4          18.6 GVED042734
     K24C08V KB2024 02 17.38383 09 31 40.55 +06 24 27.4          18.5 GVED042734
     K24C08V KB2024 02 17.38834 09 31 40.29 +06 25 13.0          18.6 GVED042734
     K24C08V KB2024 02 17.39266 09 31 40.07 +06 25 59.3          18.6 GVED042734
     K24C08V  C2024 02 17.52891209 31 44.371+06 53 21.80         18.48cVED042T05
     K24C08V  C2024 02 17.52936409 31 44.302+06 53 26.66         18.41cVED042T05
     K24C08V  C2024 02 17.52981509 31 44.287+06 53 32.42         18.73cVED042T05
     K24C08V  C2024 02 17.53026709 31 44.275+06 53 37.07         18.72cVED042T05
     K24C08V  C2024 02 17.53071909 31 44.208+06 53 43.22         19.23cVED042T05

Observer details:
703 Catalina Sky Survey.  Observer H. Groeller.  Measurers T. Beuden, V. F.
    Carvajal, D. Fay, J. B. Fazekas, D. C. Fuls, A. R. Gibbs, A. D. Grauer, H.
    Groeller, J. K. Hogan, R. A. Kowalski, S. M. Larson, G. J. Leonard, D.
    Rankin, R. L. Seaman, F. C. Shelly, K. W. Wierzchos.  0.68-m Schmidt + 10K
    CCD.
734 Farpoint Observatory, Eskridge.  Observers D. Cromer, G. Hug, D. Goodin,
    R. Valentine.  Measurer D. Cromer.  0.69-m f/3.54 reflector + CMO.
858 Tebbutt Observatory, Edgewood.  Observer F. B. Zoltowski.  0.51-m f/8.1
    Schmidt-Cassegrain + CCD.
F52 Pan-STARRS 2, Haleakala.  Observers J. Herman, T. Lowe, P. Minguez, A.
    Schultz, I. Smith.  Measurers K. Chambers, T. de Boer, J. Fairlamb, H.
    Gao, M. Huber, C.-C. Lin, E. Magnier, Y. Ramanjooloo, R. Wainscoat, R.
    Weryk.  1.8-m Ritchey-Chretien + CCD.
H21 Astronomical Research Observatory, Westfield.  Observer R. Holmes.
    Measurers T. Linder, R. Holmes, L. Horn.  0.76-m f/3.0 astrograph + CCD.
I52 Steward Observatory, Mt. Lemmon Station.  Observer J. B. Fazekas.
    Measurers E. C. Beshore, D. Fay, J. B. Fazekas, D. C. Fuls, A. R. Gibbs,
    A. D. Grauer, H. Groeller, J. K. Hogan, R. A. Kowalski, S. M. Larson, G.
    J. Leonard, D. Rankin, R. L. Seaman, F. C. Shelly, K. W. Wierzchos.  1.0-m
    prime focus + CCD.
M22 ATLAS South Africa, Sutherland.  Observers L. Denneau, R. Siverd, J.
    Tonry, H. Weiland.  Measurers L. Denneau, N. Erasmus, A. Fitzsimmons, A.
    Lawrence, J. Robinson, R. Siverd, J. Tonry, H. Weiland.  0.5-m Reflector +
    CCD.
T05 ATLAS-HKO, Haleakala.  Observers L. Denneau, R. Siverd, J. Tonry, H.
    Weiland.  Measurers L. Denneau, N. Erasmus, A. Fitzsimmons, A. Lawrence,
    J. Robinson, R. Siverd, J. Tonry, H. Weiland.  0.5-m Reflector + CCD.
V27 North Mesa Observatory, Los Alamos.  Observer B. K. Kendrick.  0.25-m f/6
    reflector + CCD.
W68 ATLAS Chile, Rio Hurtado.  Observers L. Denneau, R. Siverd, J. Tonry, H.
    Weiland.  Measurers L. Denneau, N. Erasmus, A. Fitzsimmons, A. Lawrence,
    J. Robinson, R. Siverd, J. Tonry, H. Weiland.  0.5-m Reflector + CCD.

Orbital elements:
2024 CV8                                                 Earth MOID = 0.0030 AU
Epoch 2024 Mar. 31.0 TT = JDT 2460400.5                 Veres                   
M 357.06242              (2000.0)            P               Q                  
n   0.43859150     Peri.   78.06995     -0.67586417     +0.73380019             
a   1.7156522      Node   149.05524     -0.71756523     -0.63380261             
e   0.5885139      Incl.    7.69843     -0.16824908     -0.24460485             
P   2.25           H   26.09          G   0.15           U   7                  
Residuals in seconds of arc
240213 F52  0.1+  0.0     240217 W68  0.7-  0.1+    240217 703  0.3-  0.6+
240213 F52  0.1-  0.0     240217 W68  0.1+  0.4-    240217 703  0.3+  0.2+
240213 F52  0.2-  0.0     240217 I52  0.0   0.0     240217 703  0.2-  0.1-
240213 F52  0.0   0.1+    240217 I52  0.0   0.1-    240217 703  0.1-  0.1+
240216 M22  0.3+  0.5+    240217 I52  0.1+  0.0     240217 V27  0.0   0.2+
240216 M22  0.1+  0.3-    240217 I52  0.0   0.1-    240217 734  0.0   0.8+
240216 M22  0.5+  0.4-    240217 858  0.3-  0.1+    240217 734  0.2+  0.3+
240217 M22  0.2-  0.2-    240217 858  0.0   0.1+    240217 734  0.1+  1.0-
240217 M22  0.3+  0.5+    240217 858  0.0   0.1+    240217 734  0.2+  0.3+
240217 M22  0.0   0.1-    240217 H21  0.1+  0.0     240217 T05  0.0   0.1+
240217 M22  0.3-  0.0     240217 H21  0.0   0.1-    240217 T05  0.5-  0.3-
240217 M22  0.2+  0.2-    240217 H21  0.1+  0.1+    240217 T05  0.1-  0.1+
240217 W68  0.1+  0.2-    240217 H21  0.3-  0.1-    240217 T05  0.3+  0.5-
240217 M22  0.3-  0.1+    240217 V27  0.1-  1.0+    240217 T05  0.1-  0.3+
240217 W68  0.2+  0.3-    240217 V27  0.5-  0.8+

Ephemeris:
2024 CV8                 a,e,i = 1.72, 0.59, 8                   q = 0.7060
Date    TT    R. A. (2000) Decl.     Delta      r    Elong.  Phase     V
2024 01 18    09 28 10.3 +01 36 06   0.3494  1.2994   150.5    21.9    25.4
...
2024 02 02    09 30 58.0 +00 46 02   0.1803  1.1581   161.9    15.4    23.5
...
2024 02 10    09 31 10.3 +01 10 48   0.09753 1.0817   166.5    12.3    21.9
...
2024 02 16    09 31 26.5 +03 52 02   0.03769 1.0248   169.5    10.2    19.7
2024 02 17    09 31 43.3 +05 29 15   0.02785 1.0154   170.4     9.3    19.0
2024 02 18    09 32 22.1 +08 52 33   0.01807 1.0060   172.0     7.9    17.9
...
2024 02 24    21 29 48.1 +04 30 34   0.04151 0.9505    20.0   159.2    29.8
...
2024 03 03    21 31 43.3 +01 32 12   0.1219  0.8800    22.6   154.4    30.6
...
2024 03 18    21 41 38.9 +00 06 51   0.2858  0.7692    32.4   136.2    29.2

M. P. C. Staff               (C) Copyright 2024 MPC           M.P.E.C. 2024-D42





More information about the Iaude mailing list